Location: NJAA Observatory
(40.6819°N, 74.8979°W)
Time: 16:57:35
(UTC-04:00)

Cosmos 2263 Rocket - Visible Passes

Search period start: 26 April 2015 00:00
Search period end: 06 May 2015 00:00
Orbit: 825 x 848 km, 71.0° (Epoch: 26 April)

Date Brightness Start Highest point End Pass type
(mag) Time Alt. Az. Time Alt. Az. Time Alt. Az.
26 Apr 3.6 03:16:28 10° N 03:21:34 36° ENE 03:26:41 10° SE visible
26 Apr 2.9 05:00:34 10° NW 05:05:26 31° WSW 05:10:11 10° SSW visible
27 Apr 3.7 02:59:52 10° N 03:04:52 34° ENE 03:09:54 10° ESE visible
27 Apr 2.8 04:43:50 10° NW 04:48:48 34° WSW 04:53:42 10° SSW visible
28 Apr 3.8 02:43:17 10° N 02:48:10 31° NE 02:53:07 10° ESE visible
28 Apr 2.6 04:27:05 10° NW 04:32:11 37° WSW 04:36:25 14° SSW visible
29 Apr 3.9 02:26:42 10° N 02:31:28 29° NE 02:36:06 11° ESE visible
29 Apr 2.5 04:10:22 10° NW 04:15:33 40° WSW 04:17:40 28° SSW visible
30 Apr 4.0 02:10:07 10° N 02:14:46 27° NE 02:18:12 16° ESE visible
30 Apr 2.4 03:53:39 10° NW 03:58:55 44° WSW 03:59:48 40° SW visible
01 May 4.1 01:53:33 10° N 01:58:03 25° NE 02:00:44 18° E visible
01 May 2.3 03:36:57 10° NW 03:42:17 48° WSW 03:42:21 48° WSW visible
02 May 4.1 01:36:59 10° N 01:41:20 23° NE 01:43:31 19° E visible
02 May 2.4 03:20:15 10° NNW 03:25:10 51° W 03:25:10 51° W visible
03 May 4.1 01:20:26 10° N 01:24:37 22° NE 01:26:29 19° ENE visible
03 May 2.4 03:03:33 10° NNW 03:08:08 51° WNW 03:08:08 51° WNW visible
04 May 4.2 01:03:54 10° N 01:07:54 20° NE 01:09:34 18° ENE visible
04 May 2.5 02:46:52 10° NNW 02:51:13 51° WNW 02:51:13 51° WNW visible
05 May 4.2 00:47:22 10° N 00:51:10 19° NE 00:52:45 17° ENE visible
05 May 2.6 02:30:11 10° NNW 02:34:25 51° NW 02:34:25 51° NW visible
